User: anonymous   Login
Location: Unspecified
(0.0000°N, 0.0000°E)
Time: 23:06:58
(UTC+00:00)
Language:

OBJECT AA - Orbit

View from above orbital plane
View from above orbital plane
View from above satellite
View from above satellite

Ground track
Ground track

The orbit data is extracted from the following two-line orbital elements,

1 42849U 17042AA  19082.66849273  .00000264  00000-0  31062-4 0  9994
2 42849  97.5761 340.4659 0007952 356.8791   3.2377 14.92324250 92024
Epoch (UTC): 23 March 2019 16:02:37
Eccentricity: 0.0007952
inclination: 97.5761°
perigee height: 585 km
apogee height: 596 km
right ascension of ascending node: 340.4659°
argument of perigee: 356.8791°
revolutions per day: 14.92324250
mean anomaly at epoch: 3.2377°
orbit number at epoch: 9202

The dashed part of the orbit path shows where the satellite is in the earth's shadow,  

DLR